Regional Weather Roundup
Issued by NWS Charleston, SC

Current Version | Previous Version | Graphics & Text | Print | Product List | Glossary On
Versions: 1 2 3 4 5 6 7 8 9 10 11 12 13 14 15 16 17 18 19 20 21 22 23 24 25 26 27 28 29 30 31 32 33 34 35 36 37 38 39 40 41 42 43 44 45 46 47 48 49 50
000
ASUS42 KCHS 060411
RWRCHS

REGIONAL WEATHER ROUNDUP
NATIONAL WEATHER SERVICE CHARLESTON SC
1100 PM EST THU MAR 05 2015

NOTE: "FAIR" INDICATES FEW OR NO CLOUDS BELOW 12,000 FEET WITH NO
SIGNIFICANT WEATHER AND/OR OBSTRUCTIONS TO VISIBILITY.

NOT ALL STATIONS ARE QUALITY CONTROLLED BY THE NATIONAL
WEATHER SERVICE. USE DATA WITH CAUTION...ESPECIALLY
DEWPOINT OBSERVATIONS.

SCZ027-030-031-034>040-042>050-060500-
...SOUTHEAST SOUTH CAROLINA...

CITY           SKY/WX    TMP DP  RH WIND       PRES   REMARKS
N CHARLESTON   LGT RAIN  47  45  93 N15G22    30.19R
WATERFRONT PRK   N/A     48 N/A N/A N26         N/A
MOUNT PLEASANT LGT RAIN  48  46  93 N12G24    30.19R
PINOPOLIS        N/A    N/A N/A N/A MISG        N/A
MONCKS CORNER  CLOUDY    46  43  87 N9G20     30.23R
SUMMERVILLE    CLOUDY    45  45 100 N13G23    30.23R
BEAUFORT MCAS  LGT RAIN  54  52  93 N22G30    30.16R
BEAUFORT ARPT  CLOUDY    61  59  94 NW9       30.14R
HILTON HEAD IS CLOUDY    61  57  88 NW6       30.15S
WALTERBORO     DRIZZLE   46  46 100 NE6       30.21R
ALLENDALE      CLOUDY    48  46  93 N10G17    30.20R FOG

...SOUTHERN MIDLANDS AND PEE DEE...

CITY           SKY/WX    TMP DP  RH WIND       PRES   REMARKS
GEORGETOWN     NOT AVBL
KINGSTREE      NOT AVBL
ORANGEBURG     CLOUDY    43  39  86 NE16G26   30.25R
BARNWELL       CLOUDY    46  45  93 NE16G24   30.23R
AIKEN          CLOUDY    41  37  87 N18G24    30.28R
MANNING        CLOUDY   N/A N/A N/A N14G25    30.26R
COLUMBIA       CLOUDY    43  37  79 NE10G21   30.28R HAZE
SUMTER         LGT RAIN  39  37  93 NE20G28   30.27S WCI  30
FLORENCE       CLOUDY    39  35  86 NE18G26   30.31R WCI  30
MYRTLE BEACH   CLOUDY    43  37  81 N23       30.24R
N MYRTLE BEACH LGT RAIN  41  38  89 N18G26    30.23R

$$

GAZ063-065-086>088-099>101-113>116-118-119-134>141-150-060500-
...SOUTHEAST GEORGIA...

CITY           SKY/WX    TMP DP  RH WIND       PRES   REMARKS
SAVANNAH ARPT  CLOUDY    57  52  82 NW10      30.16R
HUNTER AAF     CLOUDY    58  57  94 NW14      30.14R
FORT STEWART   MOCLDY    56  52  86 NW9       30.15R
STATESBORO     MOCLDY    50  46  86 NW14      30.19S
SYLVANIA       CLOUDY    52  50  90 N8        30.18S
CLAXTON        FAIR      50  48  93 W8        30.18S

...CSRA...CENTRAL AND FAR SOUTHEAST GEORGIA...

CITY           SKY/WX    TMP DP  RH WIND       PRES   REMARKS
THOMSON        CLOUDY    47  43  84 NW8       30.28S
AUGUSTA-BUSH   CLOUDY    47  43  86 NE17G26   30.22R
AUGUSTA-DANIEL LGT RAIN  47  44  90 NE18G24   30.23R FOG
SWAINSBORO     MOCLDY    48  41  76 NW8       30.23R
VIDALIA        MOCLDY    46  43  87 NW12      30.21R
EASTMAN        FAIR      45  41  86 NW5       30.28R
HAZLEHURST     FAIR      49  46  91 NW7       30.23R
ALMA           MOCLDY    51  45  79 NW16      30.22R
WAYCROSS       CLOUDY    58  54  89 N16       30.20R
JESUP          CLOUDY    59  54  82 NW7       30.18R
BAXLEY         MOCLDY    52  46  82 NW8       30.20S
BRUNSWICK      CLOUDY    61  55  82 NW8       30.17R
SAINT SIMONS   CLOUDY    63  60  90 NW8       30.15R

$$

SCZ027-028-034-036>038-045-046-048>050-GAZ119-141-060500-
...LAKE AND SUPPLEMENTAL COASTAL OBSERVATIONS...

STATION/POSITION TIME  TEMP    WIND        PRES    WAVE   SWELL
                       AIR SEA DIR/SP/G            HT/PER HT/PER/DIR
                 (UTC) (F)     (DEG/KT/KT) (MB)    (FT/S) (FT/S/D)
UPR LAKE MARION  NOT AVBL
WINYAH BAY       NOT AVBL
LAKE MURRAY      0300   42      20/  5/  9 1024.7R
ACE BASIN NERRS  NOT AVBL
FORT PULASKI     0300   61 53  300/ 11/ 12 1020.8R
SAPELO ISLAND    0300   62     300/  5     1020.0R

$$

ANZ835-935-AMZ111-154-330-350-352-354-370-450-454-472-060500-
...C-MAN AND BUOY OBSERVATIONS...

STATION/POSITION TIME  TEMP    WIND        PRES    WAVE   SWELL
                       AIR SEA DIR/SP/G            HT/PER HT/PER/DIR
                 (UTC) (F)     (DEG/KT/KT) (MB)    (FT/S) (FT/S/D)
BUOY 41004       0350   55 68   20/ 23/ 27 1019.8R   4/10   3/10
BUOY 41008       0350   60 56  270/  6/  8 1020.5R   3/11   2/ 90/11
FOLLY BEACH CMAN 0400           10/ 11/ 13 1022.3R
CAPERS NEARSHORE 0300   49      60/ 17/ 21   N/A
FRIPP NEARSHORE  NOT AVBL


STATION/POSITION TIME  TEMP    WIND        PRES    WAVE   SWELL
                       AIR SEA DIR/SP/G            HT/PER HT/PER/DIR
                 (UTC) (F)     (DEG/KT/KT) (MB)    (FT/S) (FT/S/D)
5E ST. MARYS GA  0321      56                N/A     3/11   2/110/11
FRYING PAN BUOY  0350   48 65   10/ 27/ 31 1021.4R   8/ 6   2/27
BUOY 41025       NOT AVBL
CAPE LOOKOUT NC  0300           10/ 16/ 22 1022.0R
BUOY 41002       0350   74 73  230/ 21/ 25 1019.5R   7/ 7   5/260/ 7
BUOY 41010       0320   75 75  190/ 12/ 14 1020.9R
ST AUGUSTINE FL  0400   67      CALM  /  2 1021.3F


$$


USA.gov is the U.S. government's official web portal to all federal, state and local government web resources and services.